Location: Izdebno
(52.6670°N, 16.2170°E)
Time: 18:54:17
(UTC+02:00)

SR - Pass Details

Date: 02 March 2024
Orbit: 577 x 862 km, 66.7° (Epoch: 20 April)

Event Time Altitude Azimuth Distance (km) Brightness Sun altitude
Rises 21:09:10 0° 320° (NW) 3,268 ? -31.6°
Reaches altitude 10° 21:11:42 10° 324° (NW) 2,291 ? -31.9°
Enters shadow 21:14:57 36° 341° (NNW) 1,152 ? -32.3°
